Regional Weather Roundup
Issued by NWS Jackson, KY

Home | Current Version | Previous Version | Text Only | Print | Product List | Glossary Off
Versions: 1 2 3 4 5 6 7 8 9 10 11 12 13 14 15 16 17 18 19 20 21 22 23 24 25 26 27 28 29 30 31 32 33 34 35 36 37 38 39 40 41 42 43 44 45 46 47 48 49 50

000
ASUS43 KJKL 271310
RWRJKL

EAST KENTUCKY HOURLY WEATHER ROUNDUP
NATIONAL WEATHER SERVICE JACKSON KY
900 AM EDT MON JUL 27 2015

NOTE: "FAIR" INDICATES FEW OR NO CLOUDS BELOW 12,000 FEET WITH
NO SIGNIFICANT WEATHER AND/OR OBSTRUCTIONS TO VISIBILITY.

* THESE REPORTS ARE NOT UNDER NWS QUALITY CONTROL AND MAY NOT
  REPORT WEATHER SUCH AS PRECIPITATION AND FOG.

KYZ079-080-083-085-087-088-110-112-115-119-120-271400
...EASTERN KENTUCKY...

CITY           SKY/WX    TMP DP  RH WIND       PRES   REMARKS
JACKSON        PTSUNNY   76  71  85 CALM      30.03R
LONDON         PTSUNNY   76  69  79 SW5       30.03S
SOMERSET*      MOSUNNY   73  72  94 CALM      30.03S
MONTICELLO*    MOSUNNY   75  74  97 CALM      30.05S
WILLIAMSBURG*  MOSUNNY   72  72 100 CALM      30.04S
MIDDLESBORO*   CLOUDY    72  72  99 CALM      30.05S FOG
HAZARD APT*    PTSUNNY   77  75  94 CALM      30.03R
BLACK MTN*       N/A     72  66  83 N2          N/A
PIKEVILLE APT* PTSUNNY   72  70  94 S3        30.04S
BIG SANDY*     PTSUNNY   75  72  91 CALM      30.02S
MOREHEAD APT*  CLOUDY    79  72  78 SW5       30.02R
$$

KYZ035-036-041-042-044-050-067-078-099-271400
...CENTRAL KENTUCKY...

CITY           SKY/WX    TMP DP  RH WIND       PRES   REMARKS
MT STERLING*   HVY RAIN  72  72 100 N12G20    30.04R VSB 1
FLEMING/MASON* LGT RAIN  72  72 100 E9        30.02R
RICHMOND*      PTSUNNY   75  70  83 CALM      30.01S
LEXINGTON      PTSUNNY   75  72  90 SW3       30.00S
FRANKFORT      MOSUNNY   79  73  82 NW5       29.99R
$$

KYZ091>093-OHZ055-061-077-WVZ005-015-034-035-042-271400
...SOUTHERN OHIO/WEST VIRGINIA...

CITY           SKY/WX    TMP DP  RH WIND       PRES   REMARKS
COVINGTON      CLOUDY    75  72  88 N5        30.00R FOG
COLUMBUS       CLOUDY    76  67  73 E6        30.00R
DAYTON         CLOUDY    72  72 100 NE6       30.02R
WILMINGTON     PTSUNNY   73  70  90 CALM      30.00S FOG
HUNTINGTON     LGT RAIN  73  72  96 CALM      30.00R FOG
CHARLESTON     CLOUDY    74  70  87 CALM      30.01R
PINEVILLE*     RAIN      70  70 100 MISG      30.12S
BECKLEY        CLOUDY    72  66  81 W3        30.11R
BLUEFIELD      CLOUDY    70  66  87 CALM      30.13S FOG
$$

VAZ002-007-008-TNZ017-027-036-066-071-271400
...SOUTHWEST VIRGINIA/EAST TENNESSEE...

CITY           SKY/WX    TMP DP  RH WIND       PRES   REMARKS
WISE*          PTSUNNY   73  72  94 W5        30.12S
ABINGDON*      CLOUDY    73  68  84 CALM      30.09S
BRISTOL        CLOUDY    73  69  87 CALM      30.06R
KNOXVILLE      MOSUNNY   78  69  73 S3        30.04R
OAK RIDGE      MOSUNNY   78  71  79 CALM      30.04S
CROSSVILLE     SUNNY     77  69  76 W3        30.08S
NASHVILLE      MOSUNNY   79  75  87 CALM      30.00S
$$

...KEY TO REMARKS...
VSB - VISIBILITY IN MILES
WCI - WIND CHILL INDEX
HX  - HEAT INDEX

$$



USA.gov is the U.S. government's official web portal to all federal, state and local government web resources and services.